• Processing (Info)

  • MPEC 2008-C69 : 2008 CK70

    The following Minor Planet Electronic Circular may be linked-to from your own Web pages, but must not otherwise be redistributed electronically.

    A form allowing access to any MPEC is at the bottom of this page.


    Read MPEC 2008-C68 Read MPEC 2008-C70


    M.P.E.C. 2008-C69                                Issued 2008 Feb. 11, 04:41 UT
    
         The Minor Planet Electronic Circulars contain information on unusual
             minor planets and routine data on comets.  They are published
       on behalf of Commission 20 of the International Astronomical Union by the
              Minor Planet Center, Smithsonian Astrophysical Observatory,
                              Cambridge, MA 02138, U.S.A.
    
                 Prepared using the Tamkin Foundation Computer Network
    
                                  MPC@CFA.HARVARD.EDU
              URL http://www.cfa.harvard.edu/iau/mpc.html  ISSN 1523-6714
    
                                       2008 CK70
    
    Observations:
         K08C70K* C2008 02 09.34106 10 17 53.51 -01 29 07.5          19.2   EC069704
         K08C70K  C2008 02 09.36168 10 17 55.14 -01 29 22.8          20.0 V EC069703
         K08C70K  C2008 02 09.36564 10 17 54.75 -01 29 29.5          20.0   EC069704
         K08C70K  C2008 02 09.37030 10 17 55.60 -01 29 31.0          19.6 V EC069703
         K08C70K  C2008 02 09.37791 10 17 55.39 -01 29 41.2          20.1   EC069704
         K08C70K  C2008 02 09.39044 10 17 56.11 -01 29 51.2          19.9   EC069704
         K08C70K  C2008 02 10.26718 10 20 00.29 -01 44 52.5          19.2   EC069704
         K08C70K  C2008 02 10.27952 10 20 01.51 -01 45 07.0          19.9   EC069704
         K08C70K  C2008 02 10.29170 10 20 02.56 -01 45 21.7          20.1   EC069704
         K08C70K  C2008 02 10.30399 10 20 03.64 -01 45 37.7          19.3   EC069704
         K08C70K  C2008 02 10.31632 10 20 04.66 -01 45 51.9          20.1   EC069704
         K08C70K  C2008 02 10.37856 10 20 10.96 -01 47 05.2          19.6 V EC069G96
         K08C70K  C2008 02 10.38705 10 20 11.72 -01 47 15.8          19.6 V EC069G96
         K08C70K  C2008 02 10.39773 10 20 12.69 -01 47 29.1          19.5 V EC069G96
         K08C70K  C2008 02 10.41125 10 20 13.95 -01 47 45.8          19.6 V EC069G96
         K08C70K  C2008 02 10.88859 10 21 54.42 -01 59 40.3          19.1 V EC069151
         K08C70K  C2008 02 10.90075 10 21 56.37 -01 59 57.2          19.4 V EC069151
         K08C70K  C2008 02 10.90378 10 21 56.83 -02 00 02.0          19.5 V EC069151
         K08C70K  C2008 02 10.90681 10 21 57.28 -02 00 06.7          19.4 V EC069151
         K08C70K  C2008 02 11.01266 10 22 12.19 -02 03 03.0                 EC069246
         K08C70K  C2008 02 11.01368 10 22 12.35 -02 03 04.7                 EC069246
         K08C70K  C2008 02 11.01457 10 22 12.48 -02 03 06.5                 EC069246
         K08C70K  C2008 02 11.01567 10 22 12.60 -02 03 08.4                 EC069246
         K08C70K  C2008 02 11.01656 10 22 12.73 -02 03 10.0                 EC069246
         K08C70K  C2008 02 11.03300 10 22 15.52 -02 03 41.7          18.8 R EC069113
         K08C70K  C2008 02 11.03522 10 22 15.87 -02 03 45.7          18.9 R EC069113
         K08C70K  C2008 02 11.03744 10 22 16.21 -02 03 49.4          18.8 R EC069113
         K08C70K  C2008 02 11.03966 10 22 16.55 -02 03 53.2          18.4 R EC069113
         K08C70K  C2008 02 11.04188 10 22 16.91 -02 03 56.7          18.7 R EC069113
         K08C70K  C2008 02 11.12263 10 22 32.59 -02 06 16.4                 EC069J95
         K08C70K  C2008 02 11.12799 10 22 33.55 -02 06 25.9                 EC069J95
         K08C70K  C2008 02 11.13335 10 22 34.46 -02 06 35.0          19.0 R EC069J95
    
    Observer details:
    113 Volkssternwarte Drebach, Schoenbrunn.  Observer G. Lehmann.  0.5-m f/5
        reflector + CCD.
    151 Eschenberg Observatory, Winterthur.  Observer M. Griesser.  0.40-m f/5.9
        Hypergraph + CCD.
    246 Klet Observatory-KLENOT.  Observers M. Tichy, J. Ticha.  Measurer M. Tichy.
        1.06-m KLENOT Telescope + CCD.
    703 Catalina Sky Survey.  Observer A. R. Gibbs.  Measurers E. C. Beshore,
        A. Boattini, G. J. Garradd, A. R. Gibbs, A. D. Grauer, R. E. Hill,
        R. A. Kowalski, S. M. Larson, R. H. McNaught.  0.68-m Schmidt + CCD.
    704 Lincoln Laboratory ETS, New Mexico.  Observers M. Bezpalko, D. Torres,
        R. Kracke, G. Spitz, J. Kistler.  Measurers J. Stuart, S. Scruggs.  1.0-m
        f/2.15 reflector + CCD.
    G96 Mt. Lemmon Survey.  Observer R. A. Kowalski.  Measurers E. C. Beshore,
        A. Boattini, G. J. Garradd, A. R. Gibbs, A. D. Grauer, R. E. Hill,
        R. A. Kowalski, S. M. Larson, R. H. McNaught.  1.5-m reflector + CCD.
    J95 Great Shefford.  Observer P. Birtwhistle.  0.40-m f/6.0 Schmidt-Cassegrain
        + CCD.
    
    Orbital elements:
    2008 CK70                                                Earth MOID = 0.0000 AU
    Epoch 2007 Oct. 27.0 TT = JDT 2454400.5                 MPC
    M 217.36454              (2000.0)            P               Q
    n   0.83683230     Peri.  104.67949     -0.33054389     +0.94195284
    a   1.1152625      Node   145.83691     -0.90123678     -0.29650706
    e   0.4702734      Incl.    6.01756     -0.28020172     -0.15750684
    P   1.18           H   25.3           G   0.15           U   8
    Residuals in seconds of arc
    080209 704  0.2+  0.7+    080210 G96  0.2-  0.3-    080211 246  0.0   0.0
    080209 703  1.1-  0.0     080210 G96  0.2-  0.3-    080211 246  0.1-  0.2-
    080209 704  0.2+  0.2+    080210 G96  0.2-  0.3-    080211 113  0.1-  0.2+
    080209 703  0.6-  0.6-    080210 G96  0.1-  0.1-    080211 113  0.0   0.1-
    080209 704  0.2+  0.7-    080210 151  0.1-  1.8-    080211 113  0.1-  0.1-
    080209 704  1.1+  0.3+    080210 151  0.1+  0.7+    080211 113  0.2-  0.2-
    080210 704  0.5-  0.1-    080210 151  0.1-  0.7+    080211 113  0.0   0.0
    080210 704  0.9+  0.4+    080210 151  0.5-  0.8+    080211 J95  0.4-  0.0
    080210 704  0.4+  0.5+    080211 246  0.6+  0.4+    080211 J95  0.2+  0.2-
    080210 704  0.3+  0.5-    080211 246  0.7+  0.4+    080211 J95  0.0   0.0
    080210 704  0.5-  0.4+    080211 246  0.7+  0.0
    
    Ephemeris:
    2008 CK70                a,e,i = 1.12, 0.47, 6                   q = 0.5908
    Date    TT    R. A. (2000) Decl.     Delta      r     Elong.  Phase     V
    2008 02 04    10 12.45   -00 41.0    0.0989   1.077   156.5    21.4    21.5
    2008 02 05    10 13.10   -00 47.4    0.0897   1.069   157.2    20.9    21.2
    2008 02 06    10 13.86   -00 54.3    0.0807   1.061   157.9    20.5    21.0
    2008 02 07    10 14.75   -01 02.2    0.0716   1.053   158.5    20.1    20.7
    2008 02 08    10 15.86   -01 11.4    0.0626   1.045   159.1    19.7    20.4
    2008 02 09    10 17.30   -01 22.8    0.0536   1.037   159.5    19.4    20.0
    2008 02 10    10 19.26   -01 37.9    0.0447   1.029   159.9    19.3    19.6
    2008 02 11    10 22.17   -01 59.5    0.0358   1.021   160.0    19.3    19.1
    2008 02 12    10 26.96   -02 34.4    0.0269   1.012   159.7    19.8    18.5
    2008 02 13    10 36.43   -03 42.2    0.0181   1.004   158.2    21.4    17.6
    2008 02 14    11 03.93   -06 54.2    0.00932  0.996   152.2    27.5    16.4
    
    2008 02 16    21 11.88   -06 18.4    0.00916  0.979    12.4   167.5    29.8
    2008 02 18    21 50.37   -01 48.0    0.0267   0.962    10.6   169.1    33.4
    2008 02 20    21 58.07   -00 54.7    0.0445   0.945    10.8   168.7    34.1
    2008 02 22    22 01.40   -00 33.7    0.0625   0.928    10.8   168.4    34.6
    2008 02 24    22 03.29   -00 24.0    0.0806   0.910    11.0   168.1    34.8
    
    Gareth V. Williams           (C) Copyright 2008 MPC           M.P.E.C. 2008-C69
    

    Read MPEC 2008-C68 Read MPEC 2008-C70


    MPEC number:

    Enter an MPEC number in one of the following forms:

    • 1997-B01 (the full form)
    • J97B01 (the packed version of the full form)
    • B01 (the abbreviated form)